Voltar ao catálogo

PHASMA-LAMARR

AtivoMeteoSSO
NORAD 66759·PAYLOAD·🇺🇸 United States
Este nome de satélite ainda não foi confirmado por fontes oficiais.

Lançado Nov 28, 2025 de Vandenberg Space Force Base

Loading…

Próximas Passagens (próximas 24 horas)

TLE

AtualizadoSource: Space-Track

Época: Sep 14, 2026, 11:04 UTC

1 66759U 25276CX  26257.46122813  .00004640  00000-0  20705-3 0  9995
2 66759  97.4093 329.8671 0001616  47.6556 312.4817 15.21867585 44013

Acompanhe PHASMA-LAMARR em tempo real com AllMySat

Download on the App Store